Powrót do katalogu

USA 448

AktywnyMilitariaVLEO
NORAD 62347·PAYLOAD·🇺🇸 United States

Wystrzelony Dec 17, 2024 z Vandenberg Space Force Base

Loading…

Następne Przeloty (najbliższe 24 godziny)

TLE

NieaktualneSource: Mike McCants

Epoka: Jul 9, 2026, 21:49 UTC

1 62347U 24243H   26190.90957692 0.00000000  00000-0  00000-0 0    05
2 62347  70.0210 225.1453 0002000  92.9600 267.0400 14.96713656    01

Śledź USA 448 w czasie rzeczywistym z AllMySat

Download on the App Store